No particular awareness of the weather is required.    There are no Weather-warnings


Meteo18 Weather Cam more information Meteo18 Weather Cam


Thunder radar more information blitzortung!


Rain radar more information rain snow radar


Visit our other weather sites:

Template documentation
and downloads

And another site



Weather Underground History page Text

Daily Summary for February 3, 2018 Units:  Metric    English   Both
« Previous Day
Next Day »
Daily Weekly Monthly Yearly Custom
  High: Low: Average:
Temperature: -17.8 °C -17.3 °C -16.3 °C
Dew Point: -17.8 °C -17.7 °C -16.9 °C
Humidity: Humidity % 85 % 93 %
Wind Speed: 0 km/h 0 km/h 5.6 km/h
Wind Gust: 0 km/h - -
Wind:- - WSW
Pressure: 0 hPa 34073.3 hPa -
Precipitation: 12.7 mm    
Historical Graphs
 
 
Tabular Data for February 3, 2018
Time Temperature Dew Point Pressure Wind Wind Speed Wind Gust Humidity Rainfall Rate (Hourly)
-17.8 °C -17.8 °C 0 hPa Calm     Humidity % 0 mm
00:00 -16.3 °C -17 °C 34256.2 hPa NW 10.3 km/h 12.9 km/h 92 % 0 mm
00:06 -16.4 °C -17.1 °C 34256.2 hPa WNW 7.6 km/h 15.6 km/h 92 % 0 mm
00:12 -16.4 °C -17.1 °C 34256.2 hPa WNW 7.6 km/h 15.6 km/h 92 % 0 mm
00:19 -16.5 °C -17.2 °C 34256.2 hPa WSW 5.1 km/h 10.3 km/h 92 % 0 mm
00:25 -16.6 °C -17.1 °C 34256.2 hPa West 5.1 km/h 12.9 km/h 93 % 0 mm
00:31 -16.6 °C -17.2 °C 34256.2 hPa WNW 12.7 km/h 15.6 km/h 93 % 0 mm
00:37 -16.7 °C -17.3 °C 34256.2 hPa WNW 7.6 km/h 12.9 km/h 93 % 0 mm
00:43 -16.7 °C -17.3 °C 34256.2 hPa WNW 2.3 km/h 15.6 km/h 93 % 0 mm
00:49 -16.8 °C -17.3 °C 34256.2 hPa WNW 7.6 km/h 12.9 km/h 93 % 0 mm
00:55 -16.8 °C -17.3 °C 34256.2 hPa WNW 7.6 km/h 10.3 km/h 93 % 0 mm
01:01 -16.8 °C -17.3 °C 34256.2 hPa WNW 12.7 km/h 15.6 km/h 94 % 0 mm
01:07 -16.8 °C -17.3 °C 34256.2 hPa WNW 5.1 km/h 15.6 km/h 94 % 0 mm
01:13 -16.9 °C -17.4 °C 34256.2 hPa WNW 5.1 km/h 18.2 km/h 94 % 0 mm
01:19 -16.8 °C -17.3 °C 34256.2 hPa WNW 15.6 km/h 18.2 km/h 94 % 0 mm
01:25 -16.8 °C -17.3 °C 34256.2 hPa WNW 12.7 km/h 18.2 km/h 94 % 0 mm
01:31 -16.8 °C -17.3 °C 34256.2 hPa WNW 10.3 km/h 15.6 km/h 94 % 0 mm
01:37 -16.9 °C -17.4 °C 34256.2 hPa WNW 10.3 km/h 10.3 km/h 94 % 0 mm
01:43 -16.9 °C -17.4 °C 34256.2 hPa NW 7.6 km/h 12.9 km/h 94 % 0 mm
01:49 -17 °C -17.5 °C 34256.2 hPa NW 7.6 km/h 12.9 km/h 94 % 0 mm
01:55 -16.9 °C -17.4 °C 34256.2 hPa WNW 2.3 km/h 15.6 km/h 94 % 0 mm
02:01 -17 °C -17.5 °C 34256.2 hPa West 2.3 km/h 12.9 km/h 94 % 0 mm
02:07 -17 °C -17.5 °C 34256.2 hPa NW 5.1 km/h 10.3 km/h 94 % 0 mm
02:13 -16.9 °C -17.4 °C 34256.2 hPa West 7.6 km/h 12.9 km/h 94 % 0 mm
02:19 -16.9 °C -17.4 °C 34256.2 hPa WNW 2.3 km/h 7.7 km/h 94 % 0 mm
02:25 -16.9 °C -17.4 °C 34256.2 hPa WNW 5.1 km/h 7.7 km/h 94 % 0 mm
02:31 -16.8 °C -17.3 °C 34256.2 hPa NW 2.3 km/h 15.6 km/h 94 % 0 mm
02:37 -16.8 °C -17.3 °C 34256.2 hPa NW 10.3 km/h 12.9 km/h 94 % 0 mm
02:43 -16.8 °C -17.3 °C 34256.2 hPa NW 7.6 km/h 10.3 km/h 94 % 0 mm
02:49 -16.7 °C -17.2 °C 34256.2 hPa WNW 2.3 km/h 10.3 km/h 94 % 0 mm
02:55 -16.7 °C -17.2 °C 34256.2 hPa WNW 5.1 km/h 12.9 km/h 94 % 0 mm
03:01 -16.7 °C -17.2 °C 34256.2 hPa WNW 15.6 km/h 18.2 km/h 94 % 0 mm
03:07 -16.6 °C -17.1 °C 34256.2 hPa West 5.1 km/h 15.6 km/h 94 % 0 mm
03:13 -16.6 °C -17.1 °C 34256.2 hPa WNW 5.1 km/h 7.7 km/h 94 % 0 mm
03:19 -16.6 °C -17.1 °C 34256.2 hPa WNW 12.7 km/h 12.9 km/h 94 % 0 mm
03:25 -16.6 °C -17.1 °C 34246 hPa WNW 5.1 km/h 15.6 km/h 94 % 0 mm
03:31 -16.6 °C -17.1 °C 34246 hPa West 2.3 km/h 10.3 km/h 94 % 0 mm
03:37 -16.6 °C -17.1 °C 34246 hPa West 7.6 km/h 12.9 km/h 94 % 0 mm
03:43 -16.6 °C -17.1 °C 34246 hPa NW 5.1 km/h 15.6 km/h 94 % 0 mm
03:49 -16.6 °C -17.1 °C 34246 hPa WNW 7.6 km/h 15.6 km/h 94 % 0 mm
03:55 -16.5 °C -17.1 °C 34246 hPa WNW 2.3 km/h 15.6 km/h 93 % 0 mm
04:01 -16.5 °C -17.1 °C 34246 hPa NNW 2.3 km/h 5.1 km/h 93 % 0 mm
04:07 -16.5 °C -17.1 °C 34246 hPa Calm   7.7 km/h 93 % 0 mm
04:13 -16.6 °C -17.1 °C 34246 hPa Calm   2.6 km/h 93 % 0 mm
04:19 -16.6 °C -17.1 °C 34246 hPa NNW 2.3 km/h 10.3 km/h 93 % 0 mm
04:25 -16.5 °C -17.1 °C 34246 hPa WNW 7.6 km/h 12.9 km/h 93 % 0 mm
04:31 -16.5 °C -17.1 °C 34235.8 hPa WNW 7.6 km/h 23.3 km/h 93 % 0 mm
04:37 -16.6 °C -17.2 °C 34235.8 hPa NW 10.3 km/h 15.6 km/h 92 % 0 mm
04:43 -16.6 °C -17.2 °C 34235.8 hPa NW 7.6 km/h 15.6 km/h 92 % 0 mm
04:49 -16.6 °C -17.2 °C 34235.8 hPa NW 7.6 km/h 15.6 km/h 93 % 0 mm
04:55 -16.6 °C -17.2 °C 34235.8 hPa WNW 7.6 km/h 12.9 km/h 93 % 0 mm
05:01 -16.7 °C -17.2 °C 34235.8 hPa WNW 5.1 km/h 10.3 km/h 93 % 0 mm
05:07 -16.7 °C -17.2 °C 34235.8 hPa NW 2.3 km/h 12.9 km/h 93 % 0 mm
05:13 -16.6 °C -17.2 °C 34235.8 hPa NNE 2.3 km/h 20.8 km/h 93 % 0 mm
05:19 -16.6 °C -17.2 °C 34222.3 hPa WNW 7.6 km/h 12.9 km/h 93 % 0 mm
05:25 -16.7 °C -17.2 °C 34222.3 hPa Calm   10.3 km/h 93 % 0 mm
05:31 -16.7 °C -17.2 °C 34222.3 hPa NNW 12.7 km/h 15.6 km/h 93 % 0 mm
05:37 -16.7 °C -17.2 °C 34222.3 hPa North 2.3 km/h 7.7 km/h 93 % 0 mm
05:43 -16.7 °C -17.3 °C 34222.3 hPa North 2.3 km/h 7.7 km/h 93 % 0 mm
05:49 -16.7 °C -17.3 °C 34222.3 hPa NNW 2.3 km/h 2.6 km/h 93 % 0 mm
05:55 -16.7 °C -17.3 °C 34222.3 hPa North 2.3 km/h 2.6 km/h 93 % 0 mm
06:01 -16.8 °C -17.3 °C 34222.3 hPa North 5.1 km/h 5.1 km/h 93 % 0 mm
06:07 -16.8 °C -17.3 °C 34222.3 hPa Calm   7.7 km/h 94 % 0 mm
06:13 -16.8 °C -17.3 °C 34222.3 hPa NW 2.3 km/h 7.7 km/h 94 % 0 mm
06:19 -16.8 °C -17.3 °C 34222.3 hPa NNW 5.1 km/h 7.7 km/h 93 % 0 mm
06:25 -16.8 °C -17.4 °C 34222.3 hPa NNW 2.3 km/h 7.7 km/h 93 % 0 mm
06:31 -16.8 °C -17.4 °C 34222.3 hPa NW 5.1 km/h 7.7 km/h 93 % 0 mm
06:37 -16.8 °C -17.3 °C 34222.3 hPa WNW 2.3 km/h 10.3 km/h 94 % 0 mm
06:43 -16.8 °C -17.3 °C 34222.3 hPa Calm   5.1 km/h 94 % 0 mm
06:49 -16.8 °C -17.3 °C 34222.3 hPa Calm   5.1 km/h 94 % 0 mm
06:55 -16.8 °C -17.3 °C 34222.3 hPa WNW 2.3 km/h 5.1 km/h 94 % 0 mm
07:01 -16.8 °C -17.3 °C 34222.3 hPa Calm   2.6 km/h 94 % 0 mm
07:07 -16.8 °C -17.4 °C 34222.3 hPa Calm     93 % 0 mm
07:14 -16.9 °C -17.4 °C 34222.3 hPa Calm     94 % 0 mm
07:20 -16.9 °C -17.4 °C 34222.3 hPa Calm     94 % 0 mm
07:26 -16.9 °C -17.4 °C 34222.3 hPa Calm     94 % 0 mm
07:32 -17 °C -17.5 °C 34222.3 hPa Calm     94 % 0 mm
07:38 -17.1 °C -17.6 °C 34222.3 hPa Calm     94 % 0 mm
07:44 -17.1 °C -17.6 °C 34222.3 hPa Calm     94 % 0 mm
07:50 -17.1 °C -17.6 °C 34222.3 hPa Calm   2.6 km/h 94 % 0 mm
07:56 -17.1 °C -17.5 °C 34222.3 hPa Calm   2.6 km/h 95 % 0 mm
08:02 -17.2 °C -17.7 °C 34222.3 hPa Calm     94 % 0 mm
08:08 -17.2 °C -17.6 °C 34222.3 hPa Calm     95 % 0 mm
08:14 -17.2 °C -17.6 °C 34222.3 hPa Calm   2.6 km/h 95 % 0 mm
08:20 -17.3 °C -17.7 °C 34235.8 hPa Calm   2.6 km/h 95 % 0 mm
08:26 -17.3 °C -17.7 °C 34235.8 hPa SSW 2.3 km/h 5.1 km/h 95 % 0 mm
08:32 -17.3 °C -17.7 °C 34235.8 hPa SW 5.1 km/h 10.3 km/h 96 % 0 mm
08:38 -17.3 °C -17.6 °C 34235.8 hPa West 7.6 km/h 12.9 km/h 96 % 0 mm
08:44 -17.3 °C -17.6 °C 34235.8 hPa WSW 12.7 km/h 15.6 km/h 96 % 0 mm
08:50 -17.3 °C -17.6 °C 34235.8 hPa WSW 7.6 km/h 12.9 km/h 96 % 0 mm
08:56 -17.3 °C -17.6 °C 34235.8 hPa West 5.1 km/h 10.3 km/h 96 % 0 mm
09:02 -17.2 °C -17.5 °C 34235.8 hPa Calm   12.9 km/h 96 % 0 mm
09:08 -17.2 °C -17.6 °C 34222.3 hPa Calm   2.6 km/h 95 % 0 mm
09:14 -17.2 °C -17.6 °C 34222.3 hPa Calm     95 % 0 mm
09:20 -17.2 °C -17.6 °C 34235.8 hPa Calm   5.1 km/h 95 % 0 mm
09:26 -17.2 °C -17.6 °C 34222.3 hPa WSW 2.3 km/h 5.1 km/h 95 % 0 mm
09:32 -17.1 °C -17.5 °C 34222.3 hPa WSW 5.1 km/h 5.1 km/h 95 % 0 mm
09:38 -17.1 °C -17.5 °C 34222.3 hPa West 2.3 km/h 2.6 km/h 95 % 0 mm
09:44 -17.1 °C -17.5 °C 34222.3 hPa SW 2.3 km/h 2.6 km/h 95 % 0 mm
09:50 -17.1 °C -17.4 °C 34222.3 hPa SW 7.6 km/h 10.3 km/h 95 % 0 mm
09:56 -17.1 °C -17.4 °C 34222.3 hPa SW 2.3 km/h 7.7 km/h 95 % 0 mm
10:02 -17 °C -17.4 °C 34222.3 hPa WSW 5.1 km/h 7.7 km/h 95 % 0 mm
10:08 -16.9 °C -17.3 °C 34222.3 hPa WSW 2.3 km/h 5.1 km/h 95 % 0 mm
10:14 -16.8 °C -17.2 °C 34222.3 hPa West 5.1 km/h 7.7 km/h 95 % 0 mm
10:20 -16.8 °C -17.2 °C 34222.3 hPa West 5.1 km/h 10.3 km/h 95 % 0 mm
10:26 -16.6 °C -17 °C 34222.3 hPa WSW 10.3 km/h 12.9 km/h 95 % 0 mm
10:32 -16.6 °C -17.1 °C 34222.3 hPa SW 5.1 km/h 7.7 km/h 94 % 0 mm
10:38 -16.5 °C -17 °C 34222.3 hPa WNW 2.3 km/h 5.1 km/h 94 % 0 mm
10:44 -16.4 °C -17 °C 34222.3 hPa SW 7.6 km/h 7.7 km/h 93 % 0 mm
10:50 -16.4 °C -17 °C 34222.3 hPa WSW 2.3 km/h 7.7 km/h 93 % 0 mm
10:56 -16.4 °C -17 °C 34222.3 hPa SW 5.1 km/h 10.3 km/h 93 % 0 mm
11:02 -16.4 °C -16.9 °C 34222.3 hPa SW 2.3 km/h 7.7 km/h 93 % 0 mm
11:08 -16.3 °C -16.8 °C 34212.1 hPa SW 7.6 km/h 10.3 km/h 94 % 0 mm
11:14 -16.3 °C -16.8 °C 34212.1 hPa SW 5.1 km/h 7.7 km/h 93 % 0 mm
11:20 -16.2 °C -16.8 °C 34212.1 hPa SSW 10.3 km/h 15.6 km/h 93 % 0 mm
11:26 -16.3 °C -16.8 °C 34212.1 hPa SW 7.6 km/h 12.9 km/h 93 % 0 mm
11:32 -16.2 °C -16.7 °C 34212.1 hPa SW 7.6 km/h 10.3 km/h 94 % 0 mm
11:38 -16.2 °C -16.7 °C 34212.1 hPa SSW 12.7 km/h 18.2 km/h 93 % 0 mm
11:45 -16.1 °C -16.8 °C 34198.6 hPa SW 7.6 km/h 15.6 km/h 92 % 0 mm
11:50 -16.1 °C -16.8 °C 34198.6 hPa SSW 10.3 km/h 15.6 km/h 92 % 0 mm
11:57 -16.1 °C -16.7 °C 34198.6 hPa SSW 7.6 km/h 12.9 km/h 92 % 0 mm
12:02 -16.1 °C -16.6 °C 34198.6 hPa SW 17.9 km/h 18.2 km/h 93 % 0 mm
12:09 -15.9 °C -16.6 °C 34198.6 hPa SSW 12.7 km/h 20.8 km/h 92 % 0 mm
12:15 -15.9 °C -16.6 °C 34198.6 hPa SSW 17.9 km/h 23.3 km/h 92 % 0 mm
12:21 -15.9 °C -16.6 °C 34198.6 hPa SSW 12.7 km/h 23.3 km/h 92 % 0 mm
12:27 -16 °C -16.7 °C 34198.6 hPa SW 17.9 km/h 23.3 km/h 92 % 0 mm
12:33 -16 °C -16.7 °C 34188.4 hPa South 12.7 km/h 20.8 km/h 92 % 0 mm
12:39 -16 °C -16.7 °C 34188.4 hPa SSW 15.6 km/h 20.8 km/h 91 % 0 mm
12:45 -15.9 °C -16.6 °C 34188.4 hPa SSW 7.6 km/h 15.6 km/h 92 % 0 mm
12:51 -15.9 °C -16.6 °C 34188.4 hPa SW 20.9 km/h 23.3 km/h 92 % 0 mm
12:57 -15.9 °C -16.6 °C 34188.4 hPa SSW 15.6 km/h 23.3 km/h 91 % 0 mm
13:03 -15.9 °C -16.6 °C 34188.4 hPa SW 12.7 km/h 20.8 km/h 91 % 0 mm
13:09 -15.9 °C -16.6 °C 34178.3 hPa SW 15.6 km/h 23.3 km/h 91 % 0 mm
13:15 -15.8 °C -16.5 °C 34178.3 hPa SW 17.9 km/h 25.9 km/h 91 % 0 mm
13:21 -15.8 °C -16.5 °C 34178.3 hPa SW 12.7 km/h 20.8 km/h 91 % 0 mm
13:27 -15.8 °C -16.6 °C 34164.7 hPa SW 12.7 km/h 18.2 km/h 90 % 0 mm
13:33 -15.8 °C -16.6 °C 34164.7 hPa SW 20.9 km/h 23.3 km/h 90 % 0 mm
13:39 -15.8 °C -16.5 °C 34164.7 hPa WSW 5.1 km/h 12.9 km/h 91 % 0 mm
13:45 -15.8 °C -16.5 °C 34164.7 hPa WSW 15.6 km/h 18.2 km/h 91 % 0 mm
13:51 -15.8 °C -16.5 °C 34164.7 hPa SW 10.3 km/h 18.2 km/h 91 % 0 mm
13:57 -15.7 °C -16.4 °C 34164.7 hPa South 10.3 km/h 12.9 km/h 91 % 0 mm
14:03 -15.7 °C -16.4 °C 34154.6 hPa SSW 7.6 km/h 15.6 km/h 91 % 0 mm
14:09 -15.7 °C -16.4 °C 34154.6 hPa SSW 10.3 km/h 12.9 km/h 91 % 0 mm
14:15 -15.7 °C -16.4 °C 34144.4 hPa SW 10.3 km/h 20.8 km/h 91 % 0 mm
14:21 -15.6 °C -16.4 °C 34144.4 hPa SW 10.3 km/h 18.2 km/h 90 % 0 mm
14:27 -15.6 °C -16.4 °C 34144.4 hPa SW 10.3 km/h 20.8 km/h 89 % 0 mm
14:33 -15.5 °C -16.4 °C 34130.9 hPa South 12.7 km/h 20.8 km/h 89 % 0 mm
14:39 -15.5 °C -16.4 °C 34130.9 hPa SW 15.6 km/h 18.2 km/h 89 % 0 mm
14:45 -15.4 °C -16.3 °C 34130.9 hPa SSW 10.3 km/h 25.9 km/h 90 % 0 mm
14:51 -15.4 °C -16.4 °C 34120.7 hPa SW 7.6 km/h 23.3 km/h 88 % 0 mm
14:57 -15.3 °C -16.4 °C 34120.7 hPa SSW 7.6 km/h 18.2 km/h 87 % 0 mm
15:03 -15.3 °C -16.6 °C 34120.7 hPa SW 12.7 km/h 28.5 km/h 85 % 0 mm
15:09 -15.4 °C -16.7 °C 34107.2 hPa SW 15.6 km/h 28.5 km/h 85 % 0 mm
15:15 -15.5 °C -16.6 °C 34107.2 hPa WSW 17.9 km/h 23.3 km/h 87 % 0 mm
15:21 -15.6 °C -16.6 °C 34107.2 hPa WSW 7.6 km/h 18.2 km/h 88 % 0 mm
15:27 -15.6 °C -16.5 °C 34107.2 hPa SW 12.7 km/h 15.6 km/h 89 % 0 mm
15:33 -15.6 °C -16.5 °C 34107.2 hPa SW 10.3 km/h 20.8 km/h 89 % 0 mm
15:39 -15.6 °C -16.7 °C 34107.2 hPa SW 17.9 km/h 23.3 km/h 87 % 0 mm
15:45 -15.6 °C -16.7 °C 34107.2 hPa SW 28.5 km/h 31.1 km/h 86 % 0 mm
15:51 -15.6 °C -16.7 °C 34107.2 hPa SW 12.7 km/h 20.8 km/h 87 % 0 mm
15:57 -15.6 °C -16.6 °C 34107.2 hPa West 15.6 km/h 15.6 km/h 88 % 0 mm
16:03 -15.5 °C -16.5 °C 34107.2 hPa West 20.9 km/h 31.1 km/h 88 % 0 mm
16:09 -15.6 °C -16.6 °C 34107.2 hPa SW 12.7 km/h 23.3 km/h 88 % 0 mm
16:15 -15.7 °C -16.6 °C 34107.2 hPa SW 12.7 km/h 25.9 km/h 89 % 7.62 mm
16:21 -15.8 °C -16.6 °C 34097 hPa SW 20.9 km/h 20.9 km/h 90 % 7.62 mm
16:27 -15.8 °C -16.6 °C 34097 hPa SW 12.7 km/h 18.2 km/h 90 % 7.62 mm
16:33 -15.8 °C -16.6 °C 34097 hPa SW 7.6 km/h 15.6 km/h 90 % 7.62 mm
16:39 -15.7 °C -16.4 °C 34097 hPa SW 7.6 km/h 10.3 km/h 91 % 7.62 mm
16:45 -15.7 °C -16.6 °C 34097 hPa SW 7.6 km/h 10.3 km/h 90 % 7.62 mm
16:51 -15.7 °C -16.4 °C 34086.9 hPa SSE 2.3 km/h 7.7 km/h 91 % 7.62 mm
16:57 -15.7 °C -16.4 °C 34086.9 hPa SSW 5.1 km/h 10.3 km/h 91 % 7.62 mm
17:03 -15.7 °C -16.4 °C 34086.9 hPa SSW 5.1 km/h 7.7 km/h 91 % 7.62 mm
17:09 -15.7 °C -16.4 °C 34086.9 hPa Calm   7.7 km/h 91 % 7.62 mm
17:15 -15.7 °C -16.4 °C 34086.9 hPa SE 2.3 km/h 5.1 km/h 92 % 0 mm
17:21 -15.7 °C -16.4 °C 34086.9 hPa Calm   5.1 km/h 92 % 0 mm
17:27 -15.7 °C -16.4 °C 34086.9 hPa Calm     92 % 0 mm
17:33 -15.8 °C -16.4 °C 34086.9 hPa Calm   2.6 km/h 92 % 0 mm
17:39 -15.8 °C -16.4 °C 34073.3 hPa Calm   2.6 km/h 92 % 0 mm
17:45 -15.8 °C -16.4 °C 34073.3 hPa Calm     92 % 0 mm
17:51 -15.8 °C -16.4 °C 34073.3 hPa Calm     92 % 0 mm
17:57 -15.8 °C -16.3 °C 34073.3 hPa Calm     93 % 0 mm
18:04 -15.8 °C -16.3 °C 34073.3 hPa Calm     93 % 0 mm
18:10 -15.8 °C -16.3 °C 34073.3 hPa Calm   2.6 km/h 93 % 0 mm
18:16 -15.8 °C -16.4 °C 34073.3 hPa Calm   2.6 km/h 93 % 0 mm
18:22 -15.8 °C -16.3 °C 34073.3 hPa Calm   2.6 km/h 93 % 0 mm
18:28 -15.8 °C -16.3 °C 34073.3 hPa Calm   2.6 km/h 93 % 0 mm
18:34 -15.8 °C -16.3 °C 34073.3 hPa Calm   2.6 km/h 93 % 0 mm
18:40 -15.8 °C -16.3 °C 34073.3 hPa Calm   2.6 km/h 93 % 0 mm
18:46 -15.8 °C -16.3 °C 34073.3 hPa Calm   2.6 km/h 93 % 0 mm
18:52 -15.8 °C -16.3 °C 34073.3 hPa Calm     93 % 0 mm
18:58 -15.7 °C -16.3 °C 34086.9 hPa SSE 2.3 km/h 2.6 km/h 93 % 7.62 mm
19:04 -15.7 °C -16.3 °C 34086.9 hPa SE 2.3 km/h 2.6 km/h 93 % 7.62 mm
19:10 -15.8 °C -16.3 °C 34073.3 hPa Calm   5.1 km/h 94 % 7.62 mm
19:16 -15.8 °C -16.3 °C 34073.3 hPa Calm   7.7 km/h 94 % 7.62 mm
19:22 -15.8 °C -16.3 °C 34086.9 hPa Calm   2.6 km/h 94 % 7.62 mm
19:24 -15.8 °C -16.3 °C 34086.9 hPa Calm   2.6 km/h 94 % 7.62 mm
19:30 -15.8 °C -16.3 °C 34086.9 hPa Calm   2.6 km/h 94 % 7.62 mm
19:36 -15.8 °C -16.3 °C 34086.9 hPa Calm   2.6 km/h 94 % 7.62 mm
19:42 -15.8 °C -16.3 °C 34086.9 hPa SW 2.3 km/h 2.6 km/h 94 % 7.62 mm
19:48 -15.8 °C -16.3 °C 34086.9 hPa SSW 2.3 km/h 2.6 km/h 94 % 7.62 mm
19:54 -15.8 °C -16.3 °C 34086.9 hPa Calm     94 % 7.62 mm
20:00 -15.8 °C -16.3 °C 34086.9 hPa Calm   2.6 km/h 94 % 0 mm
20:06 -15.8 °C -16.3 °C 34086.9 hPa Calm   5.1 km/h 94 % 0 mm
20:12 -15.8 °C -16.3 °C 34086.9 hPa Calm   2.6 km/h 94 % 0 mm
20:18 -15.8 °C -16.3 °C 34086.9 hPa Calm   2.6 km/h 94 % 0 mm
20:24 -15.9 °C -16.4 °C 34086.9 hPa Calm   5.1 km/h 94 % 0 mm
20:30 -15.9 °C -16.4 °C 34086.9 hPa Calm   5.1 km/h 93 % 0 mm
20:36 -15.9 °C -16.4 °C 34086.9 hPa Calm   5.1 km/h 93 % 0 mm
20:42 -15.9 °C -16.4 °C 34086.9 hPa Calm   2.6 km/h 94 % 0 mm
20:49 -15.9 °C -16.4 °C 34086.9 hPa Calm   5.1 km/h 94 % 0 mm
20:55 -15.9 °C -16.4 °C 34086.9 hPa SSE 2.3 km/h 5.1 km/h 94 % 0 mm
21:01 -15.9 °C -16.4 °C 34086.9 hPa Calm   2.6 km/h 94 % 0 mm
21:07 -15.9 °C -16.4 °C 34086.9 hPa Calm   2.6 km/h 94 % 0 mm
21:13 -15.9 °C -16.4 °C 34086.9 hPa Calm   2.6 km/h 94 % 0 mm
21:19 -16 °C -16.5 °C 34086.9 hPa Calm   5.1 km/h 94 % 0 mm
21:25 -16 °C -16.4 °C 34086.9 hPa Calm   2.6 km/h 95 % 0 mm
21:31 -16 °C -16.4 °C 34086.9 hPa SE 2.3 km/h 5.1 km/h 95 % 0 mm
21:37 -16 °C -16.4 °C 34086.9 hPa Calm   5.1 km/h 95 % 0 mm
21:43 -16 °C -16.4 °C 34086.9 hPa SE 7.6 km/h 7.7 km/h 95 % 0 mm
21:49 -16 °C -16.4 °C 34086.9 hPa SE 2.3 km/h 7.7 km/h 95 % 0 mm
21:55 -16 °C -16.4 °C 34086.9 hPa SSE 2.3 km/h 7.7 km/h 95 % 0 mm
22:01 -16 °C -16.4 °C 34086.9 hPa SE 5.1 km/h 7.7 km/h 95 % 0 mm
22:07 -16 °C -16.4 °C 34097 hPa Calm   7.7 km/h 95 % 0 mm
22:13 -16 °C -16.4 °C 34097 hPa Calm   5.1 km/h 95 % 0 mm
22:19 -16 °C -16.4 °C 34097 hPa SSE 5.1 km/h 5.1 km/h 95 % 0 mm
22:25 -16 °C -16.4 °C 34097 hPa Calm   2.6 km/h 95 % 0 mm
22:31 -16 °C -16.4 °C 34097 hPa Calm   5.1 km/h 95 % 0 mm
22:37 -16 °C -16.4 °C 34097 hPa Calm   2.6 km/h 95 % 0 mm
22:43 -16 °C -16.4 °C 34097 hPa Calm   10.3 km/h 95 % 0 mm
22:49 -16 °C -16.4 °C 34097 hPa Calm   7.7 km/h 95 % 0 mm
22:55 -16 °C -16.4 °C 34107.2 hPa Calm   7.7 km/h 95 % 0 mm
23:01 -16 °C -16.4 °C 34107.2 hPa SW 10.3 km/h 10.3 km/h 95 % 0 mm
23:07 -16 °C -16.5 °C 34107.2 hPa SSW 7.6 km/h 20.8 km/h 94 % 0 mm
23:13 -16 °C -16.6 °C 34107.2 hPa SSW 20.9 km/h 23.3 km/h 93 % 0 mm
23:19 -16 °C -16.6 °C 34107.2 hPa SSW 10.3 km/h 12.9 km/h 93 % 0 mm
23:25 -16.1 °C -16.6 °C 34107.2 hPa South 7.6 km/h 15.6 km/h 93 % 0 mm
23:31 -16.1 °C -16.6 °C 34107.2 hPa SSW 12.7 km/h 18.2 km/h 93 % 0 mm
23:37 -16.1 °C -16.6 °C 34107.2 hPa SSW 7.6 km/h 15.6 km/h 94 % 0 mm
23:43 -16.1 °C -16.6 °C 34107.2 hPa SSE 5.1 km/h 7.7 km/h 94 % 0 mm
23:49 -16.2 °C -16.7 °C 34107.2 hPa SSW 2.3 km/h 12.9 km/h 94 % 0 mm
23:55 -16.2 °C -16.7 °C 34120.7 hPa SSW 7.6 km/h 15.6 km/h 94 % 0 mm
Meteo18
Compliments of Weather Underground - 4 mb

Script developed by  Jim McMurry - jmcmurry@mwt.net Adapted for the template by  Wim van der Kuil - Leuven-Template.eu

You find our weather info also at:

European Weather Network

Weather Underground

Equipment we use:

Weather-station
Davis Vue

Weather-program
Meteobridge

Weather-server
Raspberry PI 2 B+

Provider
1 and 1

Davis Vue

Meteobridge

Raspberry PI 2 B+

1 and 1